This demonstration page uses our WeatherBlox Daily Observations layout. Learn more.

Left ArrowRight Arrow

38.80484, -77.04692

Hourly Observations for November 1, 2020

Temp ( °F °C ) Dew Point ( °F °C ) Humidity (%) Winds ( mph kmh ) Pressure ( in mb ) Visibility ( mi km ) Precip ( " mm )
12:52 am 00:52 Cloudy 48 8.9 41 5 77 77 S 6 9 30.35 1028 10 16.0934 0 0
1:52 am 01:52 Cloudy 49 9.4 42 5.6 77 77 S 8 13 30.32 1027 10 16.0934 0 0
1:52 am 01:52 Cloudy 49 9.4 43 6.1 80 80 SW 7 11 30.3 1026 10 16.0934 0 0
2:52 am 02:52 Cloudy 50 10 43 6.1 77 77 S 8 13 30.27 1025 10 16.0934 0 0
3:52 am 03:52 Cloudy 50 10 44 6.7 80 80 SSW 9 15 30.24 1024 10 16.0934 0 0
4:52 am 04:52 Cloudy 50 10 44 6.7 80 80 S 8 13 30.22 1023 10 16.0934 0 0
5:52 am 05:52 Mostly Cloudy 50 10 44 6.7 80 80 S 12 19 30.19 1022 10 16.0934 0 0
6:52 am 06:52 Cloudy 50 10 45 7.2 83 83 S 10 17 30.16 1021 10 16.0934 0 0
7:52 am 07:52 Cloudy 51 10.6 46 7.8 83 83 SSW 12 19 30.11 1020 10 16.0934 0 0
8:52 am 08:52 Cloudy with Light Rain 52 11.1 46 7.8 80 80 S 13 20 30.1 1019 10 16.0934 0.001 0.001
9:50 am 09:50 Cloudy with Light Rain 52 11 48 9 88 88 S 9 15 30.07 1018 2.5 4.02335 0.11 2.794
9:52 am 09:52 Cloudy with Light Rain 51 10.6 49 9.4 92 92 S 12 19 30.07 1018 2.5 4.02335 0.12 3.048
10:52 am 10:52 Cloudy with Heavy Rain 51 10.6 49 9.4 92 92 S 13 20 30.02 1017 2 3.21868 0.25 6.35
11:15 am 11:15 Cloudy with Rain 52 11.1 50 10 93 93 S 18 30 30 1016 3 4.82802 0.1 2.54
11:49 am 11:49 Cloudy with Light Rain 54 12 52 11 94 94 S 18 30 29.96 1015 9 14.48406 0.15 3.81
11:52 am 11:52 Cloudy with Light Rain 53 11.7 51 10.6 93 93 S 14 22 29.95 1014 10 16.0934 0.15 3.81
12:30 pm 12:30 Cloudy 54 12.2 52 11.1 93 93 S 14 22 29.89 1012 10 16.0934 0.001 0.001
12:52 pm 12:52 Cloudy 54 12.2 52 11.1 93 93 S 14 22 29.87 1011 10 16.0934 0.001 0.001
1:08 pm 13:08 Cloudy 55 12.8 53 11.7 93 93 S 12 19 29.86 1011 10 16.0934 0 0
1:29 pm 13:29 Cloudy 55 12.8 53 11.7 93 93 SSW 14 22 29.84 1011 10 16.0934 0 0
1:52 pm 13:52 Cloudy 56 13.3 53 11.7 90 90 SSW 13 20 29.82 1010 10 16.0934 0 0
2:05 pm 14:05 Cloudy 57 13.9 54 12.2 90 90 SSW 13 20 29.81 1009 10 16.0934 0 0
2:43 pm 14:43 Cloudy 58 14.4 54 12.2 87 87 SSW 8 13 29.78 1008 10 16.0934 0 0
2:52 pm 14:52 Mostly Cloudy 59 15 54 12.2 83 83 SW 10 17 29.77 1008 10 16.0934 0 0
3:38 pm 15:38 Partly Cloudy 57 13.9 53 11.7 87 87 SW 14 22 29.77 1008 10 16.0934 0 0
3:52 pm 15:52 Mostly Cloudy 58 14.4 53 11.7 84 84 SSW 12 19 29.76 1008 10 16.0934 0 0
3:55 pm 15:55 Partly Cloudy 58 14.4 53 11.7 84 84 SSW 10 17 29.76 1008 10 16.0934 0 0
4:39 pm 16:39 Mostly Cloudy 58 14.4 53 11.7 84 84 W 6 9 29.77 1008 10 16.0934 0 0
4:44 pm 16:44 Mostly Cloudy 58 14.4 53 11.7 84 84 W 6 9 29.78 1008 10 16.0934 0 0
4:48 pm 16:48 Mostly Cloudy 57 14 54 12 88 88 WSW 6 9 29.78 1008 10 16.0934 0 0
4:52 pm 16:52 Mostly Cloudy 58 14.4 53 11.7 84 84 W 5 7 29.79 1009 10 16.0934 0 0
5:27 pm 17:27 Cloudy 58 14.4 53 11.7 84 84 W 5 7 29.8 1009 10 16.0934 0 0
5:52 pm 17:52 Cloudy 58 14.4 51 10.6 78 78 NW 12 19 29.81 1010 10 16.0934 0 0
6:52 pm 18:52 Cloudy 56 13.3 36 2.2 47 47 NW 12 19 29.83 1010 10 16.0934 0 0
7:52 pm 19:52 Mostly Cloudy 54 12.2 30 -1.1 40 40 NW 17 28 29.84 1011 10 16.0934 0 0
8:52 pm 20:52 Partly Cloudy 52 11.1 25 -3.9 35 35 NW 20 31 29.91 1013 10 16.0934 0 0
9:52 pm 21:52 Partly Cloudy 49 9.4 22 -5.6 35 35 WNW 28 44 29.94 1014 10 16.0934 0 0
10:52 pm 22:52 Mostly Cloudy 44 6.7 23 -5 43 43 NW 16 26 29.99 1016 10 16.0934 0 0
11:52 pm 23:52 Mostly Clear 42 5.6 19 -7.2 40 40 NW 18 30 29.99 1016 10 16.0934 0 0

Powered by AerisWeather